GENESIS 1 (29252 NORAD) Tracking and Keplerian Element Data

This shows tracking and keplerian element data for the satellite.

Feedback or suggestion? Click here.




ElementValue
Catalog29252
NameGENESIS 1
Epoch Orbit68064
Epoch Day322.69801482
Epoch Year2018
RAAN27.7233
Inclination64.506
Eccentricity0.0048886
Argument of Perigee275.4108
Mean Anonmoly84.1438
Mean Motion15.17493107
Decay Rate3.72E-06
L11 29252U 06029A 18322.69801482 .00000372 00000-0 28399-4 0 9998
L22 29252 64.5060 27.7233 0048886 275.4108 84.1438 15.17493107680648

Live tracking and technical data element details for GENESIS 1 (NORAD 29252). GENESIS 1 can be tracked NOW for your location showing map with azimuth and elevation plus other details from your city location.

Track the satellite on the map from your city or location and see movement details for azimuth, elevation, latitude, longitude, range, height, and movement on the map or in text.







IsCatalogInMostPopularTable: catalog: 29252, numindb: 57
Update: records affected: 1



GetName: 29252 GENESIS 1

Hit Count: updated at: Mon, 19 Nov 2018 23:36:09 GMT